Time,TemperatureF,DewpointF,PressureIn,WindDirection,WindDirectionDegrees,WindSpeedMPH,WindSpeedGustMPH,Humidity,HourlyPrecipIn,Conditions,Clouds,dailyrainin,SoftwareType,DateUTC
2013-11-13 00:04:00,51.3,47.8,30.30,ESE,107,0.0,1.0,88,0.00,,,0.27,meteohub,2013-11-13 08:04:00,
2013-11-13 00:09:00,51.3,47.8,30.30,ENE,67,0.0,1.0,88,0.00,,,0.27,meteohub,2013-11-13 08:09:00,
2013-11-13 00:14:00,51.3,47.5,30.30,ENE,67,0.0,3.0,87,0.00,,,0.00,meteohub,2013-11-13 08:14:00,
2013-11-13 00:19:00,51.3,47.5,30.30,ENE,67,0.0,3.0,87,0.00,,,0.00,meteohub,2013-11-13 08:19:00,
2013-11-13 00:24:00,51.3,47.5,30.30,ENE,67,0.0,3.0,87,0.00,,,0.00,meteohub,2013-11-13 08:24:00,
2013-11-13 00:29:00,51.1,47.3,30.30,ENE,67,0.0,1.0,87,0.00,,,0.00,meteohub,2013-11-13 08:29:00,
2013-11-13 00:34:00,51.1,47.3,30.30,ENE,67,0.0,1.0,87,0.00,,,0.00,meteohub,2013-11-13 08:34:00,
2013-11-13 00:39:00,51.1,47.3,30.30,ENE,67,0.0,1.0,87,0.00,,,0.00,meteohub,2013-11-13 08:39:00,
2013-11-13 00:44:00,51.1,47.3,30.30,ENE,68,0.0,1.0,87,0.00,,,0.00,meteohub,2013-11-13 08:44:00,
2013-11-13 00:49:00,51.3,47.5,30.30,ENE,69,0.0,3.0,87,0.00,,,0.00,meteohub,2013-11-13 08:49:00,
2013-11-13 00:54:00,51.3,47.5,30.30,ENE,65,0.0,3.0,87,0.00,,,0.00,meteohub,2013-11-13 08:54:00,
2013-11-13 00:59:00,51.3,47.5,30.30,ENE,65,0.0,3.0,87,0.00,,,0.00,meteohub,2013-11-13 08:59:00,
2013-11-13 01:04:00,51.3,47.5,30.30,ENE,65,0.0,3.0,87,0.00,,,0.00,meteohub,2013-11-13 09:04:00,
2013-11-13 01:09:00,51.3,47.3,30.30,ENE,65,0.0,3.0,86,0.00,,,0.00,meteohub,2013-11-13 09:09:00,
2013-11-13 01:14:00,51.3,47.3,30.30,ENE,65,0.0,3.0,86,0.00,,,0.00,meteohub,2013-11-13 09:14:00,
2013-11-13 01:20:00,51.1,47.1,30.30,ENE,65,0.0,3.0,86,0.00,,,0.00,meteohub,2013-11-13 09:20:00,
2013-11-13 01:25:00,50.9,46.9,30.31,ENE,65,0.0,3.0,86,0.00,,,0.00,meteohub,2013-11-13 09:25:00,
2013-11-13 01:30:00,50.7,46.8,30.31,ENE,65,0.0,1.0,86,0.00,,,0.00,meteohub,2013-11-13 09:30:00,
2013-11-13 01:35:00,50.7,46.8,30.31,ENE,65,0.0,1.0,86,0.00,,,0.00,meteohub,2013-11-13 09:35:00,
2013-11-13 01:40:00,50.5,46.6,30.31,ENE,65,0.0,1.0,86,0.00,,,0.00,meteohub,2013-11-13 09:40:00,
2013-11-13 01:45:00,50.5,46.6,30.30,ENE,65,0.0,2.0,86,0.00,,,0.00,meteohub,2013-11-13 09:45:00,
2013-11-13 01:50:00,50.4,46.4,30.30,ENE,65,0.0,2.0,86,0.00,,,0.00,meteohub,2013-11-13 09:50:00,
2013-11-13 01:55:00,50.4,46.4,30.30,ENE,65,0.0,2.0,86,0.00,,,0.00,meteohub,2013-11-13 09:55:00,
2013-11-13 02:00:00,50.2,46.2,30.31,ENE,65,0.0,1.0,86,0.00,,,0.00,meteohub,2013-11-13 10:00:00,
2013-11-13 02:05:00,50.2,46.2,30.31,ENE,65,0.0,1.0,86,0.00,,,0.00,meteohub,2013-11-13 10:05:00,
2013-11-13 02:10:00,50.0,46.0,30.31,ENE,65,0.0,1.0,86,0.00,,,0.00,meteohub,2013-11-13 10:10:00,
2013-11-13 02:15:00,49.8,45.9,30.31,ENE,65,0.0,1.0,86,0.00,,,0.00,meteohub,2013-11-13 10:15:00,
2013-11-13 02:20:00,49.6,45.7,30.31,ENE,65,0.0,1.0,86,0.00,,,0.00,meteohub,2013-11-13 10:20:00,
2013-11-13 02:25:00,49.5,45.5,30.31,ENE,66,0.0,1.0,86,0.00,,,0.00,meteohub,2013-11-13 10:25:00,
2013-11-13 02:30:00,49.5,45.5,30.31,ENE,65,0.0,2.0,86,0.00,,,0.00,meteohub,2013-11-13 10:30:00,
2013-11-13 02:35:00,49.3,45.5,30.32,ENE,65,1.0,2.0,87,0.00,,,0.00,meteohub,2013-11-13 10:35:00,
2013-11-13 02:40:00,49.5,45.7,30.32,ENE,65,0.0,2.0,87,0.00,,,0.00,meteohub,2013-11-13 10:40:00,
2013-11-13 02:45:00,49.5,45.7,30.32,ENE,65,0.0,2.0,87,0.00,,,0.00,meteohub,2013-11-13 10:45:00,
2013-11-13 02:50:00,49.5,45.5,30.32,ENE,65,0.0,1.0,86,0.00,,,0.00,meteohub,2013-11-13 10:50:00,
2013-11-13 02:55:00,49.5,45.5,30.32,ENE,66,0.0,1.0,86,0.00,,,0.00,meteohub,2013-11-13 10:55:00,
2013-11-13 03:00:00,49.5,45.5,30.32,ENE,65,1.0,1.0,86,0.00,,,0.00,meteohub,2013-11-13 11:00:00,
2013-11-13 03:05:00,49.5,45.5,30.32,ENE,65,0.0,2.0,86,0.00,,,0.00,meteohub,2013-11-13 11:05:00,
2013-11-13 03:10:00,49.5,45.7,30.32,ENE,66,0.0,2.0,87,0.00,,,0.00,meteohub,2013-11-13 11:10:00,
2013-11-13 03:15:00,49.5,45.5,30.32,ENE,66,0.0,4.0,86,0.00,,,0.00,meteohub,2013-11-13 11:15:00,
2013-11-13 03:20:00,49.5,45.5,30.32,ENE,66,0.0,4.0,86,0.00,,,0.00,meteohub,2013-11-13 11:20:00,
2013-11-13 03:25:00,49.5,45.5,30.32,ENE,66,0.0,2.0,86,0.00,,,0.00,meteohub,2013-11-13 11:25:00,
2013-11-13 03:30:00,49.3,45.5,30.32,ENE,65,0.0,1.0,87,0.00,,,0.00,meteohub,2013-11-13 11:30:00,
2013-11-13 03:35:00,49.1,45.3,30.32,ENE,66,0.0,1.0,87,0.00,,,0.00,meteohub,2013-11-13 11:35:00,
2013-11-13 03:40:00,48.9,45.1,30.32,ENE,66,0.0,1.0,87,0.00,,,0.00,meteohub,2013-11-13 11:40:00,
2013-11-13 03:45:00,48.7,45.0,30.32,ENE,65,0.0,1.0,87,0.00,,,0.00,meteohub,2013-11-13 11:45:00,
2013-11-13 03:50:00,48.6,44.8,30.32,ENE,66,0.0,1.0,87,0.00,,,0.00,meteohub,2013-11-13 11:50:00,
2013-11-13 03:55:00,48.2,44.6,30.32,ENE,66,0.0,1.0,87,0.00,,,0.00,meteohub,2013-11-13 11:55:00,
2013-11-13 04:00:00,48.0,44.4,30.32,ENE,66,0.0,1.0,87,0.00,,,0.00,meteohub,2013-11-13 12:00:00,
2013-11-13 04:05:00,47.8,44.2,30.32,ENE,65,0.0,1.0,87,0.00,,,0.00,meteohub,2013-11-13 12:05:00,
2013-11-13 04:10:00,47.5,43.9,30.33,ENE,66,0.0,1.0,87,0.00,,,0.00,meteohub,2013-11-13 12:10:00,
2013-11-13 04:15:00,47.1,43.5,30.33,ENE,65,0.0,1.0,87,0.00,,,0.00,meteohub,2013-11-13 12:15:00,
2013-11-13 04:20:00,46.9,43.3,30.34,ENE,66,0.0,1.0,87,0.00,,,0.00,meteohub,2013-11-13 12:20:00,
2013-11-13 04:26:00,46.8,43.3,30.34,ENE,66,0.0,1.0,88,0.00,,,0.00,meteohub,2013-11-13 12:26:00,
2013-11-13 04:31:00,46.6,43.2,30.34,ENE,65,0.0,1.0,88,0.00,,,0.00,meteohub,2013-11-13 12:31:00,
2013-11-13 04:36:00,46.4,43.0,30.34,ENE,66,0.0,1.0,88,0.00,,,0.00,meteohub,2013-11-13 12:36:00,
2013-11-13 04:41:00,46.2,42.8,30.34,ENE,66,0.0,1.0,88,0.00,,,0.00,meteohub,2013-11-13 12:41:00,
2013-11-13 04:46:00,46.2,42.8,30.34,ENE,66,0.0,1.0,88,0.00,,,0.00,meteohub,2013-11-13 12:46:00,
2013-11-13 04:51:00,46.2,42.8,30.34,ENE,66,0.0,1.0,88,0.00,,,0.00,meteohub,2013-11-13 12:51:00,
2013-11-13 04:56:00,46.0,42.6,30.34,ENE,66,0.0,1.0,88,0.00,,,0.00,meteohub,2013-11-13 12:56:00,
2013-11-13 05:01:00,46.0,42.6,30.34,ENE,65,0.0,1.0,88,0.00,,,0.00,meteohub,2013-11-13 13:01:00,
2013-11-13 05:06:00,46.0,42.6,30.34,ENE,65,0.0,1.0,88,0.00,,,0.00,meteohub,2013-11-13 13:06:00,
2013-11-13 05:11:00,46.0,42.6,30.35,ENE,66,0.0,1.0,88,0.00,,,0.00,meteohub,2013-11-13 13:11:00,
2013-11-13 05:16:00,46.0,43.0,30.35,ENE,65,0.0,1.0,89,0.00,,,0.00,meteohub,2013-11-13 13:16:00,
2013-11-13 05:21:00,46.0,43.0,30.35,ENE,66,0.0,1.0,89,0.00,,,0.00,meteohub,2013-11-13 13:21:00,
2013-11-13 05:26:00,46.0,43.0,30.35,ENE,66,0.0,1.0,89,0.00,,,0.00,meteohub,2013-11-13 13:26:00,
2013-11-13 05:31:00,46.2,43.2,30.35,ENE,66,0.0,1.0,89,0.00,,,0.00,meteohub,2013-11-13 13:31:00,
2013-11-13 05:36:00,46.4,43.3,30.35,ENE,66,0.0,1.0,89,0.00,,,0.00,meteohub,2013-11-13 13:36:00,
2013-11-13 05:41:00,46.4,43.3,30.34,ENE,66,0.0,0.0,89,0.00,,,0.00,meteohub,2013-11-13 13:41:00,
2013-11-13 05:46:00,46.6,43.5,30.34,ENE,65,0.0,0.0,89,0.00,,,0.00,meteohub,2013-11-13 13:46:00,
2013-11-13 05:51:00,46.6,43.5,30.35,ENE,66,0.0,1.0,89,0.00,,,0.00,meteohub,2013-11-13 13:51:00,
2013-11-13 05:56:00,46.4,43.3,30.35,ENE,66,0.0,1.0,89,0.00,,,0.00,meteohub,2013-11-13 13:56:00,
2013-11-13 06:02:00,46.4,43.3,30.35,ENE,66,0.0,1.0,89,0.00,,,0.00,meteohub,2013-11-13 14:02:00,
2013-11-13 06:07:00,46.4,43.3,30.35,ENE,65,0.0,1.0,89,0.00,,,0.00,meteohub,2013-11-13 14:07:00,
2013-11-13 06:12:00,46.4,43.3,30.35,ENE,66,0.0,1.0,89,0.00,,,0.00,meteohub,2013-11-13 14:12:00,
2013-11-13 06:17:00,46.2,43.2,30.35,ENE,66,0.0,1.0,89,0.00,,,0.00,meteohub,2013-11-13 14:17:00,
2013-11-13 06:22:00,46.0,43.0,30.35,ENE,66,0.0,1.0,89,0.00,,,0.00,meteohub,2013-11-13 14:22:00,
2013-11-13 06:27:00,45.9,42.8,30.35,ENE,65,0.0,1.0,89,0.00,,,0.00,meteohub,2013-11-13 14:27:00,
2013-11-13 06:32:00,45.7,42.6,30.35,ENE,66,0.0,1.0,89,0.00,,,0.00,meteohub,2013-11-13 14:32:00,
2013-11-13 06:37:00,45.5,42.4,30.35,ENE,66,0.0,1.0,89,0.00,,,0.00,meteohub,2013-11-13 14:37:00,
2013-11-13 06:42:00,45.3,42.3,30.36,ENE,65,0.0,1.0,89,0.00,,,0.00,meteohub,2013-11-13 14:42:00,
2013-11-13 06:47:00,45.3,42.3,30.36,ENE,66,0.0,1.0,89,0.00,,,0.00,meteohub,2013-11-13 14:47:00,
2013-11-13 06:52:00,45.3,42.3,30.36,ENE,66,0.0,1.0,89,0.00,,,0.00,meteohub,2013-11-13 14:52:00,
2013-11-13 06:57:00,45.3,42.3,30.36,ENE,66,0.0,1.0,89,0.00,,,0.00,meteohub,2013-11-13 14:57:00,
2013-11-13 07:02:00,45.3,42.3,30.36,ENE,65,0.0,0.0,89,0.00,,,0.00,meteohub,2013-11-13 15:02:00,
2013-11-13 07:07:00,45.5,42.4,30.37,ENE,66,0.0,0.0,89,0.00,,,0.00,meteohub,2013-11-13 15:07:00,
2013-11-13 07:12:00,45.5,42.4,30.37,ENE,66,1.0,0.0,89,0.00,,,0.00,meteohub,2013-11-13 15:12:00,
2013-11-13 07:17:00,45.3,42.3,30.37,ENE,65,0.0,1.0,89,0.00,,,0.00,meteohub,2013-11-13 15:17:00,
2013-11-13 07:22:00,45.3,42.3,30.37,ENE,66,0.0,1.0,89,0.00,,,0.00,meteohub,2013-11-13 15:22:00,
2013-11-13 07:27:00,45.3,42.3,30.37,ENE,66,0.0,1.0,89,0.00,,,0.00,meteohub,2013-11-13 15:27:00,
2013-11-13 07:32:00,45.3,42.3,30.37,ENE,66,0.0,1.0,89,0.00,,,0.00,meteohub,2013-11-13 15:32:00,
2013-11-13 07:37:00,45.3,42.3,30.37,ENE,65,0.0,1.0,89,0.00,,,0.00,meteohub,2013-11-13 15:37:00,
2013-11-13 07:42:00,45.3,42.3,30.37,ENE,65,0.0,1.0,89,0.00,,,0.00,meteohub,2013-11-13 15:42:00,
2013-11-13 07:47:00,45.5,42.4,30.37,ENE,66,0.0,0.0,89,0.00,,,0.00,meteohub,2013-11-13 15:47:00,
2013-11-13 07:52:00,45.7,42.6,30.37,ENE,65,0.0,0.0,89,0.00,,,0.00,meteohub,2013-11-13 15:52:00,
2013-11-13 07:57:00,45.9,42.8,30.37,ENE,65,0.0,0.0,89,0.01,,,0.01,meteohub,2013-11-13 15:57:00,
2013-11-13 08:02:00,45.9,42.8,30.37,ENE,66,0.0,0.0,89,0.01,,,0.01,meteohub,2013-11-13 16:02:00,
2013-11-13 08:07:00,45.9,42.8,30.37,ENE,66,0.0,1.0,89,0.01,,,0.01,meteohub,2013-11-13 16:07:00,
2013-11-13 08:12:00,45.5,42.4,30.38,ENE,66,0.0,1.0,89,0.01,,,0.01,meteohub,2013-11-13 16:12:00,
2013-11-13 08:17:00,45.7,42.6,30.38,ENE,65,0.0,1.0,89,0.01,,,0.01,meteohub,2013-11-13 16:17:00,
2013-11-13 08:22:00,45.9,42.8,30.38,ENE,66,0.0,1.0,89,0.01,,,0.01,meteohub,2013-11-13 16:22:00,
2013-11-13 08:27:00,46.2,43.2,30.38,ENE,65,0.0,0.0,89,0.01,,,0.01,meteohub,2013-11-13 16:27:00,
2013-11-13 08:32:00,46.8,43.7,30.38,ENE,65,0.0,0.0,89,0.01,,,0.01,meteohub,2013-11-13 16:32:00,
2013-11-13 08:37:00,47.1,44.1,30.38,ENE,65,0.0,0.0,89,0.01,,,0.01,meteohub,2013-11-13 16:37:00,
2013-11-13 08:42:00,47.7,44.6,30.38,ENE,65,0.0,0.0,89,0.01,,,0.01,meteohub,2013-11-13 16:42:00,
2013-11-13 08:47:00,48.0,45.0,30.38,ENE,65,0.0,0.0,89,0.01,,,0.01,meteohub,2013-11-13 16:47:00,
2013-11-13 08:52:00,48.6,45.5,30.38,ENE,65,0.0,0.0,89,0.01,,,0.01,meteohub,2013-11-13 16:52:00,
2013-11-13 08:57:00,49.3,46.2,30.38,SE,136,0.0,1.0,89,0.00,,,0.01,meteohub,2013-11-13 16:57:00,
2013-11-13 09:02:00,49.6,46.6,30.38,SSE,158,0.0,2.0,89,0.00,,,0.01,meteohub,2013-11-13 17:02:00,
2013-11-13 09:07:00,50.2,46.8,30.38,ESE,102,0.0,2.0,88,0.00,,,0.01,meteohub,2013-11-13 17:07:00,
2013-11-13 09:12:00,50.4,46.9,30.39,South,171,0.0,2.0,88,0.00,,,0.01,meteohub,2013-11-13 17:12:00,
2013-11-13 09:17:00,50.5,47.1,30.39,ENE,68,0.0,2.0,88,0.00,,,0.01,meteohub,2013-11-13 17:17:00,
2013-11-13 09:22:00,50.7,46.9,30.39,ENE,68,0.0,2.0,87,0.00,,,0.01,meteohub,2013-11-13 17:22:00,
2013-11-13 09:27:00,50.9,47.1,30.39,ENE,68,0.0,2.0,87,0.00,,,0.01,meteohub,2013-11-13 17:27:00,
2013-11-13 09:32:00,50.9,47.1,30.39,ENE,68,0.0,1.0,87,0.00,,,0.01,meteohub,2013-11-13 17:32:00,
2013-11-13 09:37:00,50.9,46.9,30.39,East,86,0.0,2.0,86,0.00,,,0.01,meteohub,2013-11-13 17:37:00,
2013-11-13 09:42:00,51.1,47.1,30.39,East,86,0.0,2.0,86,0.00,,,0.01,meteohub,2013-11-13 17:42:00,
2013-11-13 09:47:00,51.1,47.1,30.39,East,86,1.0,2.0,86,0.00,,,0.01,meteohub,2013-11-13 17:47:00,
2013-11-13 09:52:00,51.1,47.3,30.39,ENE,67,0.0,1.0,87,0.00,,,0.01,meteohub,2013-11-13 17:52:00,
2013-11-13 09:57:00,51.4,47.5,30.39,East,90,0.0,3.0,86,0.00,,,0.01,meteohub,2013-11-13 17:57:00,
2013-11-13 10:02:00,51.4,47.5,30.40,East,90,0.0,3.0,86,0.00,,,0.01,meteohub,2013-11-13 18:02:00,
2013-11-13 10:07:00,51.6,47.5,30.40,ESE,110,0.0,1.0,86,0.00,,,0.01,meteohub,2013-11-13 18:07:00,
2013-11-13 10:12:00,52.0,47.7,30.40,East,80,0.0,1.0,85,0.00,,,0.01,meteohub,2013-11-13 18:12:00,
2013-11-13 10:17:00,52.2,47.8,30.40,East,94,0.0,3.0,85,0.00,,,0.01,meteohub,2013-11-13 18:17:00,
2013-11-13 10:22:00,52.2,47.8,30.40,East,94,0.0,3.0,85,0.00,,,0.01,meteohub,2013-11-13 18:22:00,
2013-11-13 10:27:00,52.2,47.8,30.40,ESE,104,1.0,2.0,85,0.00,,,0.01,meteohub,2013-11-13 18:27:00,
2013-11-13 10:32:00,52.2,47.8,30.40,East,93,0.0,2.0,85,0.00,,,0.01,meteohub,2013-11-13 18:32:00,
2013-11-13 10:37:00,52.0,47.7,30.40,East,93,0.0,2.0,85,0.00,,,0.01,meteohub,2013-11-13 18:37:00,
2013-11-13 10:42:00,52.2,47.8,30.40,East,84,0.0,2.0,85,0.00,,,0.01,meteohub,2013-11-13 18:42:00,
2013-11-13 10:47:00,52.0,47.7,30.40,ENE,61,1.0,2.0,85,0.00,,,0.01,meteohub,2013-11-13 18:47:00,
2013-11-13 10:52:00,52.0,47.7,30.40,East,86,0.0,2.0,85,0.00,,,0.01,meteohub,2013-11-13 18:52:00,
2013-11-13 10:57:00,52.0,47.7,30.40,East,88,0.0,2.0,85,0.00,,,0.01,meteohub,2013-11-13 18:57:00,
2013-11-13 11:02:00,52.2,47.8,30.40,East,95,0.0,2.0,85,0.00,,,0.01,meteohub,2013-11-13 19:02:00,
2013-11-13 11:07:00,52.3,48.0,30.40,East,94,0.0,2.0,85,0.00,,,0.01,meteohub,2013-11-13 19:07:00,
2013-11-13 11:12:00,52.3,47.7,30.40,East,94,0.0,2.0,84,0.00,,,0.01,meteohub,2013-11-13 19:12:00,
2013-11-13 11:17:00,52.7,48.0,30.40,NNE,28,0.0,2.0,84,0.00,,,0.01,meteohub,2013-11-13 19:17:00,
2013-11-13 11:22:00,53.1,48.4,30.40,ENE,60,1.0,4.0,84,0.00,,,0.01,meteohub,2013-11-13 19:22:00,
2013-11-13 11:27:00,53.4,48.4,30.40,SE,142,0.0,4.0,83,0.00,,,0.01,meteohub,2013-11-13 19:27:00,
2013-11-13 11:32:00,53.4,48.0,30.40,East,96,0.0,4.0,82,0.00,,,0.01,meteohub,2013-11-13 19:32:00,
2013-11-13 11:37:00,53.4,48.0,30.40,East,80,0.0,4.0,82,0.00,,,0.01,meteohub,2013-11-13 19:37:00,
2013-11-13 11:42:00,53.2,47.8,30.40,East,80,0.0,4.0,82,0.00,,,0.01,meteohub,2013-11-13 19:42:00,
2013-11-13 11:47:00,53.1,47.7,30.41,East,94,0.0,3.0,82,0.00,,,0.01,meteohub,2013-11-13 19:47:00,
2013-11-13 11:52:00,53.1,48.0,30.41,East,101,0.0,3.0,83,0.00,,,0.01,meteohub,2013-11-13 19:52:00,
2013-11-13 11:57:00,52.9,47.8,30.40,East,81,0.0,5.0,83,0.00,,,0.01,meteohub,2013-11-13 19:57:00,
2013-11-13 12:02:00,53.1,48.0,30.40,East,80,0.0,6.0,83,0.00,,,0.01,meteohub,2013-11-13 20:02:00,
2013-11-13 12:07:00,53.1,48.4,30.40,SE,130,0.0,6.0,84,0.00,,,0.01,meteohub,2013-11-13 20:07:00,
2013-11-13 12:12:00,53.2,48.6,30.40,ENE,69,0.0,6.0,84,0.00,,,0.01,meteohub,2013-11-13 20:12:00,
2013-11-13 12:17:00,53.4,48.7,30.40,SE,144,0.0,6.0,84,0.00,,,0.01,meteohub,2013-11-13 20:17:00,
2013-11-13 12:22:00,53.8,48.7,30.40,SSE,153,0.0,6.0,83,0.00,,,0.01,meteohub,2013-11-13 20:22:00,
2013-11-13 12:27:00,53.8,48.7,30.40,East,97,1.0,3.0,83,0.00,,,0.01,meteohub,2013-11-13 20:27:00,
2013-11-13 12:32:00,53.8,48.4,30.40,East,101,0.0,3.0,82,0.00,,,0.01,meteohub,2013-11-13 20:32:00,
2013-11-13 12:37:00,54.0,48.9,30.40,NE,46,0.0,4.0,83,0.00,,,0.01,meteohub,2013-11-13 20:37:00,
2013-11-13 12:42:00,54.0,48.6,30.40,ENE,71,2.0,4.0,82,0.00,,,0.01,meteohub,2013-11-13 20:42:00,
2013-11-13 12:47:00,54.0,48.6,30.40,ENE,74,0.0,5.0,82,0.00,,,0.01,meteohub,2013-11-13 20:47:00,
2013-11-13 12:52:00,54.1,48.7,30.40,ENE,75,0.0,5.0,82,0.00,,,0.01,meteohub,2013-11-13 20:52:00,
2013-11-13 12:57:00,54.1,48.7,30.40,NE,55,0.0,4.0,82,0.00,,,0.01,meteohub,2013-11-13 20:57:00,
2013-11-13 13:02:00,54.0,48.6,30.39,ESE,106,1.0,4.0,82,0.00,,,0.01,meteohub,2013-11-13 21:02:00,
2013-11-13 13:07:00,53.8,48.4,30.39,East,84,0.0,3.0,82,0.00,,,0.01,meteohub,2013-11-13 21:07:00,
2013-11-13 13:12:00,53.8,48.4,30.39,East,92,0.0,3.0,82,0.00,,,0.01,meteohub,2013-11-13 21:12:00,
2013-11-13 13:17:00,54.1,48.7,30.39,ENE,78,0.0,4.0,82,0.00,,,0.01,meteohub,2013-11-13 21:17:00,
2013-11-13 13:22:00,54.7,48.6,30.39,SE,139,0.0,4.0,80,0.00,,,0.01,meteohub,2013-11-13 21:22:00,
2013-11-13 13:27:00,55.2,49.1,30.39,SE,141,0.0,7.0,80,0.00,,,0.01,meteohub,2013-11-13 21:27:00,
2013-11-13 13:32:00,55.6,48.9,30.39,SE,140,0.0,7.0,78,0.00,,,0.01,meteohub,2013-11-13 21:32:00,
2013-11-13 13:37:00,55.2,48.6,30.38,ESE,109,0.0,4.0,78,0.00,,,0.01,meteohub,2013-11-13 21:37:00,
2013-11-13 13:42:00,54.7,48.4,30.39,East,96,0.0,4.0,79,0.00,,,0.01,meteohub,2013-11-13 21:42:00,
2013-11-13 13:47:00,54.0,48.0,30.38,East,95,0.0,4.0,80,0.00,,,0.01,meteohub,2013-11-13 21:47:00,
2013-11-13 13:52:00,53.4,47.7,30.38,East,96,0.0,4.0,81,0.00,,,0.01,meteohub,2013-11-13 21:52:00,
2013-11-13 13:58:00,53.2,47.5,30.38,ENE,62,0.0,1.0,81,0.00,,,0.01,meteohub,2013-11-13 21:58:00,
2013-11-13 14:03:00,53.2,47.5,30.38,East,85,0.0,1.0,81,0.00,,,0.01,meteohub,2013-11-13 22:03:00,
2013-11-13 14:08:00,53.2,47.5,30.38,East,86,0.0,3.0,81,0.00,,,0.01,meteohub,2013-11-13 22:08:00,
2013-11-13 14:13:00,53.4,47.7,30.38,East,86,0.0,1.0,81,0.00,,,0.01,meteohub,2013-11-13 22:13:00,
2013-11-13 14:18:00,53.4,47.5,30.38,East,86,0.0,1.0,80,0.00,,,0.01,meteohub,2013-11-13 22:18:00,
2013-11-13 14:23:00,53.6,47.7,30.38,East,86,0.0,1.0,80,0.00,,,0.01,meteohub,2013-11-13 22:23:00,
2013-11-13 14:28:00,53.8,47.8,30.38,East,86,0.0,1.0,80,0.00,,,0.01,meteohub,2013-11-13 22:28:00,
2013-11-13 14:33:00,53.8,47.8,30.38,East,86,0.0,2.0,80,0.00,,,0.01,meteohub,2013-11-13 22:33:00,
2013-11-13 14:38:00,54.0,48.0,30.38,East,86,0.0,2.0,80,0.00,,,0.01,meteohub,2013-11-13 22:38:00,
2013-11-13 14:43:00,54.1,48.0,30.37,East,86,0.0,1.0,80,0.00,,,0.01,meteohub,2013-11-13 22:43:00,
2013-11-13 14:48:00,54.1,48.0,30.37,East,86,0.0,1.0,80,0.00,,,0.01,meteohub,2013-11-13 22:48:00,
2013-11-13 14:53:00,54.1,48.0,30.37,East,86,0.0,1.0,80,0.00,,,0.01,meteohub,2013-11-13 22:53:00,
2013-11-13 14:58:00,54.1,48.0,30.38,East,85,0.0,1.0,80,0.00,,,0.01,meteohub,2013-11-13 22:58:00,
2013-11-13 15:03:00,54.1,48.0,30.38,East,84,0.0,1.0,80,0.00,,,0.01,meteohub,2013-11-13 23:03:00,
2013-11-13 15:08:00,54.1,48.0,30.38,East,85,0.0,1.0,80,0.00,,,0.01,meteohub,2013-11-13 23:08:00,
2013-11-13 15:13:00,54.0,48.0,30.38,East,85,0.0,1.0,80,0.00,,,0.01,meteohub,2013-11-13 23:13:00,
2013-11-13 15:18:00,54.0,48.0,30.38,East,84,0.0,1.0,80,0.00,,,0.01,meteohub,2013-11-13 23:18:00,
2013-11-13 15:23:00,54.0,48.0,30.38,East,85,0.0,1.0,80,0.00,,,0.01,meteohub,2013-11-13 23:23:00,
2013-11-13 15:28:00,54.0,47.7,30.38,East,85,0.0,1.0,79,0.00,,,0.01,meteohub,2013-11-13 23:28:00,
2013-11-13 15:33:00,53.8,47.5,30.38,East,85,0.0,2.0,79,0.00,,,0.01,meteohub,2013-11-13 23:33:00,
2013-11-13 15:38:00,53.8,47.8,30.38,East,85,0.0,2.0,80,0.00,,,0.01,meteohub,2013-11-13 23:38:00,
2013-11-13 15:43:00,53.4,47.5,30.38,East,85,0.0,2.0,80,0.00,,,0.01,meteohub,2013-11-13 23:43:00,
2013-11-13 15:49:00,53.2,47.5,30.38,East,85,0.0,1.0,81,0.00,,,0.01,meteohub,2013-11-13 23:49:00,
2013-11-13 15:54:00,53.1,47.3,30.38,East,85,0.0,1.0,81,0.00,,,0.01,meteohub,2013-11-13 23:54:00,
2013-11-13 15:59:00,52.9,47.5,30.38,East,85,0.0,1.0,82,0.00,,,0.01,meteohub,2013-11-13 23:59:00,
2013-11-13 16:04:00,52.7,47.3,30.38,East,84,0.0,1.0,82,0.00,,,0.01,meteohub,2013-11-14 00:04:00,
2013-11-13 16:09:00,52.5,47.1,30.38,East,84,0.0,1.0,82,0.00,,,0.01,meteohub,2013-11-14 00:09:00,
2013-11-13 16:14:00,52.3,46.9,30.38,East,85,0.0,1.0,82,0.00,,,0.01,meteohub,2013-11-14 00:14:00,
2013-11-13 16:19:00,52.3,46.9,30.38,East,84,0.0,1.0,82,0.00,,,0.01,meteohub,2013-11-14 00:19:00,
2013-11-13 16:24:00,52.3,46.9,30.38,East,85,0.0,1.0,82,0.00,,,0.01,meteohub,2013-11-14 00:24:00,
2013-11-13 16:29:00,52.2,46.8,30.38,East,84,0.0,1.0,82,0.00,,,0.01,meteohub,2013-11-14 00:29:00,
2013-11-13 16:34:00,52.2,47.1,30.37,East,85,0.0,1.0,83,0.00,,,0.01,meteohub,2013-11-14 00:34:00,
2013-11-13 16:39:00,52.0,46.9,30.37,East,85,0.0,1.0,83,0.00,,,0.01,meteohub,2013-11-14 00:39:00,
2013-11-13 16:44:00,51.8,46.8,30.38,East,85,0.0,1.0,83,0.00,,,0.01,meteohub,2013-11-14 00:44:00,
2013-11-13 16:49:00,51.6,46.6,30.37,East,85,0.0,1.0,83,0.00,,,0.01,meteohub,2013-11-14 00:49:00,
2013-11-13 16:54:00,51.6,46.2,30.37,East,85,0.0,1.0,82,0.00,,,0.01,meteohub,2013-11-14 00:54:00,
2013-11-13 16:59:00,51.4,46.2,30.37,East,85,0.0,1.0,82,0.00,,,0.01,meteohub,2013-11-14 00:59:00,
2013-11-13 17:04:00,51.4,46.2,30.37,East,85,0.0,1.0,82,0.00,,,0.01,meteohub,2013-11-14 01:04:00,
2013-11-13 17:09:00,51.4,46.2,30.37,East,84,0.0,1.0,82,0.00,,,0.01,meteohub,2013-11-14 01:09:00,
2013-11-13 17:14:00,51.3,46.0,30.37,East,85,0.0,1.0,82,0.00,,,0.01,meteohub,2013-11-14 01:14:00,
2013-11-13 17:19:00,51.3,46.0,30.37,East,84,0.0,1.0,82,0.00,,,0.01,meteohub,2013-11-14 01:19:00,
2013-11-13 17:24:00,51.3,46.0,30.36,East,85,0.0,1.0,82,0.00,,,0.01,meteohub,2013-11-14 01:24:00,
2013-11-13 17:29:00,51.3,46.0,30.36,East,85,0.0,1.0,82,0.00,,,0.01,meteohub,2013-11-14 01:29:00,
2013-11-13 17:35:00,51.1,45.9,30.36,East,85,0.0,1.0,82,0.00,,,0.01,meteohub,2013-11-14 01:35:00,
2013-11-13 17:40:00,51.1,45.9,30.36,East,85,0.0,1.0,82,0.00,,,0.01,meteohub,2013-11-14 01:40:00,
2013-11-13 17:45:00,51.1,45.9,30.36,East,85,0.0,1.0,82,0.00,,,0.01,meteohub,2013-11-14 01:45:00,
2013-11-13 17:50:00,50.9,45.7,30.36,East,85,0.0,1.0,82,0.00,,,0.01,meteohub,2013-11-14 01:50:00,
2013-11-13 17:55:00,50.7,45.5,30.36,East,85,0.0,1.0,82,0.00,,,0.01,meteohub,2013-11-14 01:55:00,
2013-11-13 18:00:00,50.7,45.5,30.36,East,84,0.0,1.0,82,0.00,,,0.01,meteohub,2013-11-14 02:00:00,
2013-11-13 18:05:00,50.5,45.3,30.36,East,84,0.0,0.0,82,0.00,,,0.01,meteohub,2013-11-14 02:05:00,
2013-11-13 18:10:00,50.5,45.3,30.36,East,85,0.0,0.0,82,0.00,,,0.01,meteohub,2013-11-14 02:10:00,
2013-11-13 18:15:00,50.4,45.1,30.36,East,85,0.0,0.0,82,0.00,,,0.01,meteohub,2013-11-14 02:15:00,
2013-11-13 18:20:00,50.2,45.0,30.36,East,85,0.0,0.0,82,0.00,,,0.01,meteohub,2013-11-14 02:20:00,
2013-11-13 18:25:00,50.0,44.8,30.36,East,85,0.0,0.0,82,0.00,,,0.01,meteohub,2013-11-14 02:25:00,
2013-11-13 18:30:00,49.8,44.8,30.36,East,84,0.0,0.0,83,0.00,,,0.01,meteohub,2013-11-14 02:30:00,
2013-11-13 18:35:00,49.8,44.8,30.36,East,85,0.0,2.0,83,0.00,,,0.01,meteohub,2013-11-14 02:35:00,
2013-11-13 18:40:00,49.8,44.8,30.35,East,84,0.0,2.0,83,0.00,,,0.01,meteohub,2013-11-14 02:40:00,
2013-11-13 18:45:00,49.5,44.8,30.35,East,85,0.0,2.0,84,0.00,,,0.01,meteohub,2013-11-14 02:45:00,
2013-11-13 18:50:00,49.1,44.4,30.35,East,84,0.0,1.0,84,0.00,,,0.01,meteohub,2013-11-14 02:50:00,
2013-11-13 18:55:00,48.9,44.6,30.34,East,84,0.0,1.0,85,0.00,,,0.01,meteohub,2013-11-14 02:55:00,
2013-11-13 19:00:00,48.7,44.4,30.35,East,86,0.0,1.0,85,0.00,,,0.01,meteohub,2013-11-14 03:00:00,
2013-11-13 19:05:00,48.6,44.6,30.35,East,86,0.0,1.0,86,0.00,,,0.01,meteohub,2013-11-14 03:05:00,
2013-11-13 19:10:00,48.6,44.6,30.34,East,86,0.0,1.0,86,0.00,,,0.01,meteohub,2013-11-14 03:10:00,
2013-11-13 19:15:00,48.4,44.8,30.35,East,86,0.0,1.0,87,0.00,,,0.01,meteohub,2013-11-14 03:15:00,
2013-11-13 19:20:00,48.4,44.8,30.35,East,86,0.0,1.0,87,0.00,,,0.01,meteohub,2013-11-14 03:20:00,
2013-11-13 19:25:00,48.4,44.8,30.35,East,86,0.0,0.0,87,0.00,,,0.01,meteohub,2013-11-14 03:25:00,
2013-11-13 19:30:00,48.4,44.8,30.35,East,86,0.0,0.0,87,0.00,,,0.01,meteohub,2013-11-14 03:30:00,
2013-11-13 19:35:00,48.6,44.8,30.35,East,86,0.0,0.0,87,0.00,,,0.01,meteohub,2013-11-14 03:35:00,
2013-11-13 19:40:00,48.4,44.8,30.35,East,86,0.0,1.0,87,0.00,,,0.01,meteohub,2013-11-14 03:40:00,
2013-11-13 19:45:00,48.4,44.8,30.34,East,86,0.0,1.0,87,0.00,,,0.01,meteohub,2013-11-14 03:45:00,
2013-11-13 19:51:00,48.4,44.8,30.34,East,86,0.0,0.0,87,0.00,,,0.01,meteohub,2013-11-14 03:51:00,
2013-11-13 19:56:00,48.6,44.8,30.34,East,86,0.0,0.0,87,0.00,,,0.01,meteohub,2013-11-14 03:56:00,
2013-11-13 20:01:00,48.6,44.8,30.34,East,86,0.0,1.0,87,0.00,,,0.01,meteohub,2013-11-14 04:01:00,
2013-11-13 20:06:00,48.6,44.8,30.34,East,86,0.0,1.0,87,0.00,,,0.01,meteohub,2013-11-14 04:06:00,
2013-11-13 20:11:00,48.6,44.8,30.34,East,86,0.0,1.0,87,0.00,,,0.01,meteohub,2013-11-14 04:11:00,
2013-11-13 20:16:00,48.6,44.8,30.34,East,86,0.0,0.0,87,0.00,,,0.01,meteohub,2013-11-14 04:16:00,
2013-11-13 20:21:00,48.6,44.8,30.35,East,86,0.0,0.0,87,0.00,,,0.01,meteohub,2013-11-14 04:21:00,
2013-11-13 20:26:00,48.4,44.8,30.35,East,86,0.0,0.0,87,0.00,,,0.01,meteohub,2013-11-14 04:26:00,
2013-11-13 20:31:00,48.4,44.8,30.35,East,86,0.0,0.0,87,0.00,,,0.01,meteohub,2013-11-14 04:31:00,
2013-11-13 20:36:00,48.4,44.8,30.34,East,86,0.0,0.0,87,0.00,,,0.01,meteohub,2013-11-14 04:36:00,
2013-11-13 20:41:00,48.4,44.8,30.34,East,86,0.0,1.0,87,0.00,,,0.01,meteohub,2013-11-14 04:41:00,
2013-11-13 20:46:00,48.4,44.8,30.34,East,86,0.0,1.0,87,0.00,,,0.01,meteohub,2013-11-14 04:46:00,
2013-11-13 20:51:00,48.0,44.4,30.33,East,86,0.0,1.0,87,0.00,,,0.01,meteohub,2013-11-14 04:51:00,
2013-11-13 20:56:00,47.7,44.1,30.33,East,86,0.0,1.0,87,0.00,,,0.01,meteohub,2013-11-14 04:56:00,
2013-11-13 21:01:00,47.7,44.1,30.33,East,86,0.0,1.0,87,0.00,,,0.01,meteohub,2013-11-14 05:01:00,
2013-11-13 21:02:00,47.5,43.9,30.33,East,86,0.0,1.0,87,0.00,,,0.01,meteohub,2013-11-14 05:02:00,
2013-11-13 21:03:00,47.5,43.9,30.33,East,86,0.0,1.0,87,0.00,,,0.01,meteohub,2013-11-14 05:03:00,
2013-11-13 21:08:00,47.5,43.9,30.33,East,86,0.0,1.0,87,0.00,,,0.01,meteohub,2013-11-14 05:08:00,
2013-11-13 21:13:00,47.5,44.1,30.33,East,86,0.0,0.0,88,0.00,,,0.01,meteohub,2013-11-14 05:13:00,
2013-11-13 21:18:00,47.5,44.1,30.33,East,86,0.0,0.0,88,0.00,,,0.01,meteohub,2013-11-14 05:18:00,
2013-11-13 21:23:00,47.3,43.9,30.33,East,86,0.0,0.0,88,0.00,,,0.01,meteohub,2013-11-14 05:23:00,
2013-11-13 21:28:00,47.1,43.7,30.33,East,86,0.0,0.0,88,0.00,,,0.01,meteohub,2013-11-14 05:28:00,
2013-11-13 21:33:00,47.1,43.7,30.34,East,86,0.0,0.0,88,0.00,,,0.01,meteohub,2013-11-14 05:33:00,
2013-11-13 21:38:00,47.1,43.7,30.34,East,86,0.0,0.0,88,0.00,,,0.01,meteohub,2013-11-14 05:38:00,
2013-11-13 21:43:00,47.1,43.7,30.34,East,86,0.0,0.0,88,0.00,,,0.01,meteohub,2013-11-14 05:43:00,
2013-11-13 21:48:00,47.3,43.9,30.34,East,86,0.0,1.0,88,0.00,,,0.01,meteohub,2013-11-14 05:48:00,
2013-11-13 21:53:00,47.5,44.1,30.33,East,86,0.0,1.0,88,0.00,,,0.01,meteohub,2013-11-14 05:53:00,
2013-11-13 21:58:00,47.5,44.1,30.32,East,86,0.0,1.0,88,0.00,,,0.01,meteohub,2013-11-14 05:58:00,
2013-11-13 22:03:00,47.7,44.2,30.33,East,86,0.0,1.0,88,0.00,,,0.01,meteohub,2013-11-14 06:03:00,
2013-11-13 22:08:00,47.7,44.6,30.33,East,86,0.0,1.0,89,0.00,,,0.01,meteohub,2013-11-14 06:08:00,
2013-11-13 22:14:00,47.8,44.8,30.33,East,86,0.0,1.0,89,0.00,,,0.01,meteohub,2013-11-14 06:14:00,
2013-11-13 22:19:00,48.0,45.0,30.32,East,86,0.0,0.0,89,0.00,,,0.01,meteohub,2013-11-14 06:19:00,
2013-11-13 22:24:00,48.0,45.0,30.32,East,86,0.0,1.0,89,0.00,,,0.01,meteohub,2013-11-14 06:24:00,
2013-11-13 22:29:00,48.0,45.0,30.32,East,86,0.0,1.0,89,0.00,,,0.01,meteohub,2013-11-14 06:29:00,
2013-11-13 22:34:00,47.8,44.8,30.32,East,86,0.0,1.0,89,0.00,,,0.01,meteohub,2013-11-14 06:34:00,
2013-11-13 22:39:00,47.7,44.6,30.32,East,86,0.0,0.0,89,0.00,,,0.01,meteohub,2013-11-14 06:39:00,
2013-11-13 22:44:00,47.7,44.2,30.32,East,86,0.0,0.0,88,0.00,,,0.01,meteohub,2013-11-14 06:44:00,
2013-11-13 22:49:00,47.5,44.1,30.32,East,86,0.0,1.0,88,0.00,,,0.01,meteohub,2013-11-14 06:49:00,
2013-11-13 22:54:00,47.3,44.2,30.32,East,86,0.0,1.0,89,0.00,,,0.01,meteohub,2013-11-14 06:54:00,
2013-11-13 22:59:00,47.1,44.1,30.32,East,86,0.0,1.0,89,0.00,,,0.01,meteohub,2013-11-14 06:59:00,
2013-11-13 23:04:00,47.1,44.1,30.32,East,86,0.0,1.0,89,0.00,,,0.01,meteohub,2013-11-14 07:04:00,
2013-11-13 23:09:00,47.1,44.1,30.32,East,86,0.0,1.0,89,0.00,,,0.01,meteohub,2013-11-14 07:09:00,
2013-11-13 23:14:00,47.3,44.2,30.32,East,86,0.0,0.0,89,0.00,,,0.01,meteohub,2013-11-14 07:14:00,
2013-11-13 23:19:00,47.3,44.2,30.32,East,86,0.0,1.0,89,0.00,,,0.01,meteohub,2013-11-14 07:19:00,
2013-11-13 23:24:00,47.5,44.4,30.32,East,86,0.0,1.0,89,0.00,,,0.01,meteohub,2013-11-14 07:24:00,
2013-11-13 23:29:00,47.7,44.6,30.31,East,86,0.0,1.0,89,0.00,,,0.01,meteohub,2013-11-14 07:29:00,
2013-11-13 23:34:00,47.7,44.6,30.31,East,86,0.0,1.0,89,0.00,,,0.01,meteohub,2013-11-14 07:34:00,
2013-11-13 23:39:00,47.7,44.6,30.31,East,86,0.0,1.0,89,0.00,,,0.01,meteohub,2013-11-14 07:39:00,
2013-11-13 23:44:00,47.7,44.6,30.31,East,86,0.0,1.0,89,0.00,,,0.01,meteohub,2013-11-14 07:44:00,
2013-11-13 23:49:00,47.7,44.6,30.31,East,86,0.0,1.0,89,0.00,,,0.01,meteohub,2013-11-14 07:49:00,
2013-11-13 23:54:00,47.7,44.6,30.31,East,86,0.0,1.0,89,0.00,,,0.01,meteohub,2013-11-14 07:54:00,
2013-11-13 23:59:00,47.7,44.6,30.31,East,86,0.0,1.0,89,0.00,,,0.01,meteohub,2013-11-14 07:59:00,